#timestamp,LO_Frequency,Hit,StdDev 
1692896415.3,286046995.2,N
1692896435.2,286046995.3,N
1692896455.9,286046995.5,N
1692896475.7,286046996.1,N
1692896495.6,286046995.3,N
1692896515.4,286046995.4,N
1692896535.2,286046995.5,N
1692896555.1,286046997.3,N
1692896556.0,286046997.3,N
1692896575.8,286046997.8,N
1692896595.6,286046996.1,N
1692896615.5,286046995.1,Y
1692896635.3,286046998.9,P
1692896655.1,286046999.4,N
1692896675.9,286046998.4,N
1692896695.7,286046996.8,Y
1692896715.5,286046998.7,P
1692896735.4,286046998.4,P
1692896755.2,286046998.4,P
1692896775.0,286046998.4,Y
1692896775.9,286046998.4,P
1692896795.8,286047000.0,N
1692896815.6,286047001.1,N
1692896835.4,286047000.8,N
1692896855.3,286046999.4,N
1692896875.1,286046998.3,N
1692896895.8,286046998.2,N
1692896915.7,286046998.6,N
1692896935.5,286047000.7,N
1692896955.3,286047000.6,N
1692896975.2,286047000.2,N
1692896995.0,286047000.3,N
1692896995.9,286047000.3,N
1692897015.7,286047001.2,N
1692897035.6,286047000.5,N
1692897055.4,286047000.7,N
1692897075.2,286047000.1,N
1692897095.1,286047000.9,N
1692897096.0,286047000.9,N
1692897115.8,286046998.1,N
1692897135.7,286047001.1,N
1692897155.5,286046998.4,N
1692897175.3,286047001.2,N
1692897195.2,286047000.5,N
1692897215.9,286046998.9,N
1692897235.7,286046998.8,N
1692897255.6,286047004.0,Y
1692897275.4,286047003.0,P
1692897295.2,286047002.8,N
1692897315.1,286047001.2,N
1692897316.0,286047001.2,N
1692897335.8,286046999.8,N
1692897355.6,286047000.3,N
1692897375.5,286047000.6,N
1692897395.3,286046998.8,N
1692897415.1,286046998.9,N
1692897435.9,286046998.9,N
1692897455.7,286046999.0,N
1692897475.5,286047031.6,Y
1692897495.4,286047048.1,P
1692897515.2,286047031.8,N
1692897535.0,286047022.7,N
1692897535.9,286047022.7,N
1692897555.8,286047014.1,N
1692897575.6,286047010.4,N
1692897595.4,286047006.9,N
1692897615.3,286047005.4,N
1692897635.1,286047002.2,N
1692897655.8,286047000.0,N
1692897675.7,286046999.0,N
1692897695.5,286046997.7,N
1692897715.3,286046995.1,N
1692897735.2,286046995.2,N
1692897755.9,286046994.0,N
1692897775.7,286046992.3,N
1692897795.6,286046991.8,N
1692897815.4,286046992.6,N
1692897835.2,286046990.8,N
1692897855.1,286046991.2,N
1692897856.0,286046991.2,N
1692897875.8,286046988.5,N
1692897895.6,286046988.8,N
1692897915.5,286046987.0,N
1692897935.3,286046987.6,N
1692897955.1,286046988.1,N
1692897975.9,286046985.7,N
1692897995.7,286046985.4,N
1692898015.5,286046986.5,N
1692898035.4,286046986.3,N
1692898055.2,286046984.6,N
1692898075.0,286046985.1,N
1692898075.9,286046985.1,N
1692898095.8,286046983.9,N
1692898115.6,286046984.6,N
1692898135.4,286046984.8,N
1692898155.3,286046984.9,N
1692898175.1,286046984.5,N
1692898195.8,286046984.6,Y
1692898215.7,286046996.3,P
1692898235.5,286046996.3,N
1692898255.3,286046993.8,N
1692898275.2,286046993.3,N
1692898295.0,286046996.3,N
1692898295.9,286046996.3,N
1692898315.7,286046993.9,N
1692898335.6,286046996.4,N
1692898355.4,286046996.0,N
1692898375.2,286046997.6,N
1692898395.1,286046995.3,N
1692898396.0,286046995.3,N
1692898415.8,286046995.8,N
1692898435.7,286046997.5,N
1692898455.5,286046999.2,N
1692898475.3,286046997.9,N
1692898495.2,286046995.4,N
1692898515.9,286046997.4,N
1692898535.7,286046994.9,N
1692898555.6,286046995.2,N
1692898575.4,286046997.8,N
1692898595.2,286046996.5,N
1692898615.1,286046997.2,N
1692898616.0,286046997.2,N
1692898635.8,286046994.9,N
1692898655.6,286046995.6,N
1692898675.5,286046997.8,N
1692898695.3,286046997.9,N
1692898715.1,286046996.5,N
1692898735.9,286046996.9,N
1692898755.7,286046998.3,N
1692898775.5,286046996.6,N
1692898795.4,286046997.0,N
1692898815.2,286046997.0,N
1692898835.0,286047003.5,N
1692898835.9,286047003.5,N
1692898855.8,286047003.0,N
1692898875.6,286047004.1,N
1692898895.4,286047004.4,N
1692898915.3,286047003.9,N
1692898935.1,286047004.2,N
1692898936.0,286047004.2,N
1692898955.8,286047001.3,N
1692898975.7,286047003.7,N
1692898995.5,286047004.2,N
1692899015.3,286047004.1,N
1692899035.2,286047004.2,N
1692899055.9,286047002.9,N
1692899075.7,286047003.4,N
1692899095.6,286047003.3,N
1692899115.4,286047003.2,N
1692899135.2,286047004.8,N
1692899155.1,286047005.5,N
1692899156.0,286047005.5,N
1692899175.8,286047004.8,N
1692899195.6,286047005.3,N
1692899215.5,286047004.9,N
1692899235.3,286047007.2,N
1692899255.1,286047007.3,N
1692899275.9,286047006.5,N
1692899295.7,286047008.3,Y
1692899315.5,286047007.2,P
1692899335.4,286047004.5,N
1692899355.2,286047005.1,P
1692899375.0,286047004.7,Y
1692899375.9,286047004.7,P
1692899395.8,286047001.4,P
1692899415.6,286047001.7,N
1692899435.4,286047001.4,N
1692899455.3,286047002.3,N
1692899475.1,286047001.7,N
1692899495.8,286047003.2,N
1692899515.7,286047004.0,N
1692899535.5,286047001.3,N
1692899555.3,286047006.7,Y
1692899575.2,286047005.9,P
1692899595.0,286047004.2,N
1692899595.9,286047004.2,P
1692899615.7,286047004.1,Y
1692899635.6,286047011.9,P
1692899655.4,286047001.1,N
1692899675.2,286046999.6,N
1692899695.1,286047001.1,N
1692899696.0,286047001.1,N
1692899715.8,286047001.1,N
1692899735.6,286047001.1,N
1692899755.5,286047000.5,N
1692899775.3,286047000.3,N
1692899795.1,286047000.5,N
1692899815.9,286047000.1,N
1692899835.7,286047002.7,N
1692899855.5,286047001.3,N
1692899875.4,286047001.9,N
1692899895.2,286047004.3,N
1692899915.0,286047009.9,Y
1692899916.0,286047009.9,P
1692899935.8,286047009.4,N
1692899955.6,286047008.7,N
1692899975.5,286047005.1,N
1692899995.3,286047005.6,N
